Home > Weather > Kaliningrad > Past weeks

Flag for Russia Weather for the Past 2 Weeks in Kaliningrad, Russia

Now
39 °F

Low clouds.


Feels Like: 34 °F
Forecast: 36 / 41 °F
Wind: 8 mph from East

Location: Kaliningrad/Khrabrovo Airport

Current Time: Feb 14, 2016 at 5:13:44 PM

Latest Report: Feb 14, 2016 at 4:30 PM


Visibility: N/A

Pressure: 29.39 "Hg

Humidity: 93%

Dew point: 37 °F

Location of KaliningradLocation

Historic Weather in Kaliningrad — Graph

°F

Kaliningrad Temperature Yesterday

Maximum temperature yesterday: 37 °F (at 3:30 PM)
Minimum temperature yesterday: 27 °F (at 7:30 AM)
Average temperature yesterday: 33 °F

High & Low Weather Summary for the Past Weeks

 TemperatureHumidityPressure
High50 °F (Feb 8, 2:00 PM)100% (Feb 1, 2:00 AM)30.09 "Hg (Feb 1, 2:00 AM)
Low27 °F (Feb 13, 7:30 AM)54% (Feb 8, 4:00 PM)29.12 "Hg (Feb 10, 7:00 AM)
Average39 °F86%29.57 "Hg
* Reported Jan 30 4:00 PM — Feb 14 4:00 PM, Kaliningrad, Weather by CustomWeather, © 2016

Note: Actual official high and low records may vary slightly from our data, if they occured in-between our weather recording intervals... More about our weather records

Advertising

Kaliningrad Weather History for the Previous 24 Hours

 ConditionsComfort  
Time TempWeatherWind HumidityBarometerVisibility
4:00 PM
Sun, Feb 14
39 °FLow clouds.8 mph93%29.39 "HgN/A
3:30 PM39 °FLow clouds.8 mph93%29.39 "HgN/A
3:00 PM39 °FLow clouds.6 mph93%29.39 "HgN/A
2:30 PM39 °FLow clouds.3 mph93%29.39 "Hg5 mi
2:00 PM37 °FLow clouds.3 mph100%29.39 "Hg6 mi
1:30 PM37 °FFog.6 mph100%29.39 "Hg3 mi
1:00 PM37 °FSnow. Cloudy.6 mph100%29.39 "Hg1 mi
12:30 PM37 °FSnow. Cloudy.3 mph100%29.39 "Hg1 mi
12:00 PM36 °FSnow. Cloudy.3 mph100%29.39 "Hg1 mi
11:30 AM36 °FFog.3 mph100%29.39 "Hg2 mi
11:00 AM36 °FFog.3 mph100%29.36 "Hg3 mi
10:30 AM36 °FLow clouds.6 mph100%29.36 "Hg4 mi
10:00 AM36 °FLow clouds.3 mph93%29.36 "Hg5 mi
9:30 AM34 °FLow clouds.1 mph100%29.36 "Hg6 mi
9:00 AM34 °FLow clouds.3 mph100%29.36 "Hg5 mi
8:30 AM34 °FLow clouds.3 mph100%29.39 "Hg5 mi
8:00 AM34 °FLow clouds.3 mph100%29.39 "Hg4 mi
7:30 AM34 °FLow clouds.3 mph100%29.39 "Hg4 mi
7:00 AM34 °FLow clouds.6 mph100%29.39 "Hg5 mi
6:00 AM36 °FPassing clouds.6 mph93%29.39 "HgN/A
5:30 AM36 °FPassing clouds.6 mph93%29.39 "HgN/A
5:00 AM36 °FPassing clouds.6 mph100%29.39 "HgN/A
4:30 AM36 °FPassing clouds.3 mph100%29.39 "HgN/A
4:00 AM36 °FPassing clouds.3 mph100%29.39 "HgN/A
3:00 AM36 °FPassing clouds.3 mph100%29.42 "HgN/A
2:00 AM36 °FPassing clouds.6 mph100%29.42 "HgN/A
1:00 AM36 °FPassing clouds.3 mph100%29.42 "HgN/A
12:00 AM36 °FPassing clouds.6 mph93%29.45 "HgN/A
11:00 PM
Sat, Feb 13
34 °FPassing clouds.1 mph100%29.45 "HgN/A
10:30 PM34 °FPassing clouds.3 mph100%29.45 "HgN/A
10:00 PM34 °FPassing clouds.3 mph100%29.45 "HgN/A
9:30 PM34 °FPassing clouds.3 mph100%29.45 "HgN/A
9:00 PM36 °FPassing clouds.3 mph93%29.47 "HgN/A
8:30 PM34 °FPassing clouds.3 mph100%29.47 "HgN/A
8:00 PM34 °FPassing clouds.3 mph100%29.47 "HgN/A
7:30 PM36 °FPartly sunny.3 mph93%29.47 "HgN/A
7:00 PM36 °FOvercast.3 mph93%29.47 "Hg6 mi
6:30 PM36 °FPartly sunny.3 mph100%29.50 "Hg5 mi
6:00 PM36 °FPartly sunny.3 mph100%29.50 "Hg5 mi
5:30 PM37 °FPartly sunny.1 mph93%29.50 "Hg4 mi
5:00 PM37 °FPartly sunny.3 mph93%29.50 "Hg4 mi
Weather by CustomWeather, © 2016

See weather overviewHow to use our weather pages